Location: Commack
(40.8429°N, 73.2929°W)
Time: 22:38:04
(UTC+00:00)

Daily predictions for brighter satellites

Satellite Brightness Start Highest point End
(mag) Time Altitude Azimuth Time Altitude Azimuth Time Altitude Azimuth
GP-B 3.1 23:14:20 10° N 23:18:48 77° E 23:23:13 10° S
Tsikada Rocket 4.0 23:12:52 10° N 23:19:03 78° E 23:25:12 10° S
SKYMED 2 4.2 23:15:21 10° N 23:19:40 64° WNW 23:23:57 10° SSW
Okean 2 3.7 23:20:13 10° N 23:24:16 47° E 23:28:16 10° SSE
CSL-04 Debris 4.4 23:22:14 10° SE 23:27:25 51° ENE 23:32:38 10° N
Meteor 1-21 4.5 23:24:16 10° N 23:29:42 48° ENE 23:35:04 10° SSE
Cosmos 1898 Rocket 3.5 23:25:01 10° SSW 23:30:11 84° ESE 23:35:23 10° NNE
Cosmos 1975 2.8 23:31:07 10° S 23:35:11 79° E 23:39:17 10° N
Cosmos 1603 3.7 23:30:46 10° NNW 23:36:25 65° ENE 23:42:00 10° SSE
CSL-04 Rocket 3.8 23:31:34 10° SSE 23:36:51 59° ENE 23:42:14 10° N
CZ-4 R/B 1.7 23:32:49 10° S 23:37:02 78° WSW 23:41:16 10° NNW
Cosmos 1782 Rocket 3.5 23:34:01 10° S 23:38:21 67° E 23:42:46 10° NNE
Cosmos 1908 Rocket 4.2 23:36:16 10° SSW 23:40:33 61° W 23:44:54 10° N
NOSS 2-2 (C) 3.3 23:37:22 10° SSW 23:40:44 46° ESE 23:44:15 10° NE
Cosmos 1544 4.1 23:38:07 10° SSW 23:41:41 51° W 23:45:16 10° N
Cosmos 858 Rocket 4.4 23:37:57 10° SSW 23:43:10 79° ESE 23:48:24 10° NNE
Cosmos 1025 Rocket 4.4 23:40:58 10° NNE 23:44:19 21° ENE 23:46:55 13° ESE
CZ-2C R/B 2.2 23:42:27 10° SW 23:45:32 27° S 23:47:43 15° ESE
Cosmos 372 Rocket 4.4 23:43:31 10° S 23:48:23 41° ESE 23:53:17 10° NE
Cosmos 807 4.1 23:45:40 10° S 23:48:39 79° E 23:52:07 10° N
Cosmos 1842 3.3 23:50:34 10° N 23:54:27 79° W 23:58:18 10° S
